Location: Balmoral
(33.0667°S, 151.5833°E)
Time: 01:24:13
(UTC+00:00)

NOSS 0 Rocket - Pass Details

Date: 18 September 2020
Orbit: 934 x 956 km, 70.0° (Epoch: 21 October)

Event Time Altitude Azimuth Distance (km) Brightness Sun altitude
Rises 18:38:10 0° 202° (SSW) 3,618 6.8 -15.3°
Reaches altitude 10° 18:40:43 10° 201° (SSW) 2,669 6.2 -14.8°
Maximum altitude 18:46:55 88° 113° (ESE) 948 3.9 -13.5°
Drops below altitude 10° 18:53:05 10° 21° (NNE) 2,649 6.5 -12.2°
Sets 18:55:36 0° 20° (NNE) 3,589 7.2 -11.7°
